Find Kosmos-1018

NORAD ID: 10935 Int'l Des: 1978-056 Owner: GUKOSR Country: SU operational
LEOCIRCULAR

当前视图

正在加载3D地球...

About Kosmos-1018

Kosmos-1018 (NORAD 10935) is a satellite launched Jun 7, 1978 by GUKOSR of SU. It operates in LEO, CIRCULAR orbit with a mass of 60.00 kg.

关于 Kosmos-1018

正在加载描述...

即将过境

Passes for default location (London). Set your location on the main map for personalized predictions.

高度历史

Loading altitude history...

两行轨道根数

1 10935U 78056F 26159.75834942 -.00000001 00000-0 98379-4 0 9991
2 10935 74.0276 340.4116 0029014 76.0639 300.2872 12.49909765190275
Epoch: Jun 8, 2026 • Age: 9 hours

当前状态

高度 1486.2 km
速度 7.12 km/s
星下点 -35.21°S, 17.93°E
发射日期 Jun 7, 1978
运行时间 48 years
类型 other

技术详情

分类 Payload
质量 60.00 kg
干质量 60.00 kg
总质量 60.00 kg
长度 0.80 m
直径 0.80 m
跨度 0.80 m
形状 Poly
制造商 NPOPM
平台类型 Strela-1 11F625
阶段状态 In Orbit
所有者/国家 GUKOSR/SU

Most Searched